Left ArrowRight Arrow

33.98154, -81.23621

Hourly Observations for December 2, 2018

Temp ( °F °C ) Dew Point ( °F °C ) Humidity (%) Winds ( mph kmh ) Pressure ( in mb ) Visibility ( mi km ) Precip ( " mm )
12:09 am 00:09 Mostly Cloudy with Fog 60 15.6 60 15.6 100 100 ESE 3 6 29.80 1009 4 6 0.00 0.00
12:32 am 00:32 Mostly Cloudy with Mist and Fog 59 15 59 15 100 100 SE 3 6 29.80 1009 1 2 0.00 0.00
12:51 am 00:51 Mostly Cloudy with Fog 59 15 59 15 100 100 ESE 6 9 29.77 1008 1 1 0.00 0.00
12:56 am 00:56 Cloudy with Fog 59 15 59 15 100 100 ESE 5 7 29.78 1009 1 1 0.00 0.00
1:15 am 01:15 Cloudy with Mist and Fog 59 15 59 15 100 100 ESE 3 6 29.80 1009 1 2 0.00 0.00
1:38 am 01:38 Cloudy with Mist and Fog 59 15 59 15 100 100 E 6 9 29.77 1008 2 3 0.00 0.00
1:56 am 01:56 Cloudy with Mist and Fog 59 15 59 15 100 100 Calm 29.78 1009 3 4 0.00 0.00
2:18 am 02:18 Cloudy with Fog 59 15 59 15 100 100 E 3 6 29.77 1008 0 0 0.00 0.00
2:40 am 02:40 Mostly Cloudy with Fog 59 15 59 15 100 100 ESE 3 6 29.77 1008 1 1 0.00 0.00
2:56 am 02:56 Cloudy with Fog 58 14.4 58 14.4 100 100 SE 3 6 29.78 1008 0 0 0.00 0.00
3:14 am 03:14 Mostly Cloudy with Fog 58 14.4 58 14.4 100 100 E 3 6 29.77 1008 5 8 0.00 0.00
3:36 am 03:36 Cloudy with Mist and Fog 59 15 59 15 100 100 Calm 29.77 1008 2 3 0.00 0.00
3:47 am 03:47 Cloudy with Mist and Fog 60 15.6 60 15.6 100 100 SSE 3 6 29.77 1008 4 6 0.00 0.00
3:56 am 03:56 Cloudy with Mist and Fog 60 15.6 60 15.6 100 100 S 5 7 29.76 1008 4 6 0.00 0.00
4:16 am 04:16 Cloudy 63 17 63 17 100 100 SSW 10 17 29.77 1008 7 11 0.00 0.00
4:40 am 04:40 Cloudy with Thunderstorms 64 18 64 18 100 100 SSW 14 22 29.77 1008 10 16 0.00 0.00
4:56 am 04:56 Cloudy with Thunderstorms 65 18.3 65 18.3 100 100 SW 14 22 29.79 1009 8 13 0.01 0.25
5:20 am 05:20 Cloudy 64 18 64 18 100 100 SSW 10 17 29.77 1008 10 16 0.00 0.00
5:56 am 05:56 Cloudy 64 17.8 64 17.8 100 100 SSE 7 11 29.74 1007 10 16 0.01 0.25
6:05 am 06:05 Cloudy with Light Rain 64 17.8 64 17.8 100 100 W 5 7 29.77 1008 10 16 0.00 0.03
6:37 am 06:37 Cloudy with Light Rain 65 18.3 65 18.3 100 100 S 8 13 29.77 1008 10 16 0.01 0.25
6:56 am 06:56 Cloudy 65 18.3 65 18.3 100 100 SSW 7 11 29.77 1008 10 16 0.01 0.25
7:45 am 07:45 Cloudy 65 18.3 65 18.3 100 100 S 12 19 29.80 1009 10 16 0.00 0.00
7:56 am 07:56 Cloudy 65 18.3 65 18.3 100 100 S 10 17 29.78 1009 10 16 0.00 0.00
8:22 am 08:22 Cloudy 64 18 64 18 100 100 SSW 9 15 29.77 1008 10 16 0.00 0.00
8:56 am 08:56 Cloudy 66 18.9 66 18.9 100 100 SSW 12 19 29.79 1009 10 16 0.00 0.00
9:56 am 09:56 Cloudy 67 19.4 66 18.9 97 97 S 16 26 29.81 1010 10 16 0.00 0.00
10:37 am 10:37 Cloudy 68 20 67 19.4 96 96 S 16 26 29.83 1010 10 16 0.00 0.00
10:56 am 10:56 Cloudy 68 20 67 19.4 96 96 S 13 20 29.82 1010 10 16 0.00 0.00
11:56 am 11:56 Cloudy 69 20.6 67 19.4 93 93 S 14 22 29.80 1009 10 16 0.00 0.00
12:56 pm 12:56 Cloudy 71 21.7 68 20 90 90 SSW 13 20 29.78 1008 10 16 0.00 0.03
1:39 pm 13:39 Cloudy with Heavy Rain 69 20.6 69 20.6 100 100 SSW 9 15 29.77 1008 2 2 0.03 0.76
1:56 pm 13:56 Cloudy with Light Rain 68 20 68 20 100 100 SW 6 9 29.76 1008 5 8 0.25 6.35
2:56 pm 14:56 Cloudy 69 20.6 69 20.6 100 100 SSW 12 19 29.74 1007 10 16 0.00 0.03
3:56 pm 15:56 Cloudy 71 21.7 69 20.6 94 94 SW 8 13 29.74 1007 10 16 0.00 0.00
4:56 pm 16:56 Cloudy 71 21.7 70 21.1 96 96 SSW 8 13 29.76 1008 10 16 0.00 0.00
5:56 pm 17:56 Cloudy 70 21.1 70 21.1 100 100 SSW 8 13 29.76 1008 10 16 0.00 0.00
6:39 pm 18:39 Cloudy 71 21.7 70 21.1 96 96 SW 9 15 29.77 1008 10 16 0.00 0.00
6:56 pm 18:56 Cloudy 71 21.7 70 21.1 96 96 SW 8 13 29.77 1008 10 16 0.00 0.00
7:33 pm 19:33 Partly Cloudy 70 21.1 70 21.1 100 100 SW 8 13 29.80 1009 10 16 0.00 0.00
7:56 pm 19:56 Clear 69 20.6 69 20.6 100 100 SW 8 13 29.79 1009 10 16 0.00 0.00
8:56 pm 20:56 Clear 68 20 68 20 100 100 SW 7 11 29.79 1009 10 16 0.00 0.00
9:56 pm 21:56 Clear 67 19.4 67 19.4 100 100 SW 7 11 29.80 1009 10 16 0.00 0.00
10:56 pm 22:56 Clear 66 18.9 66 18.9 100 100 SW 7 11 29.82 1010 9 14 0.00 0.00
11:56 pm 23:56 Clear 65 18.3 65 18.3 100 100 SW 8 13 29.83 1010 8 13 0.00 0.00

Powered by Vaisala Xweather